Tracking 20241 objects as of 28-Jan-2020
HD Live streaming from Space Station
objects crossing your sky now

NEPALISAT1

Track NEPALISAT1 now!
10-day predictions
NEPALISAT1 is classified as:


NORAD ID: 44329
Int'l Code: 1998-067QE
Perigee: 404.5 km
Apogee: 413.2 km
Inclination: 51.6 °
Period: 92.6 minutes
Semi major axis: 6779 km
RCS: Unknown
Launch date: November 20, 1998
Source: Federal Democratic Republic of Nepal (NPL)
Launch site: TYURATAM MISSILE AND SPACE COMPLEX (TTMTR)

Uplink (MHz):
Downlink (MHz): 437.375
Beacon (MHz): 437.375
Mode: 4800bps GMSK CW
Call sign: JG6YLG
Status: Active

aabbcc
Your satellite tracking list
Your tracking list is empty




NASA's NSSDC Master Catalog

Two Line Element Set (TLE):
1 44329U 98067QE  20028.52560436 +.00006750 +00000-0 +10516-3 0  9999
2 44329 051.6409 319.2377 0006446 188.2329 171.8558 15.55154940035051
Source of the keplerian elements: AFSPC